Flag for Norway Weather past 2 weeks in Sandefjord, Norway

Now
34 °F

Chilly.


Feels Like: 28 °F
Forecast: 28 / 45 °F
Wind: 7 mph from West

Location: Torp

Current Time: Mar 31, 2015 at 2:51:45 AM

Latest Report: Mar 31, 2015 at 2:20 AM


Visibility: N/A

Pressure: 29.09 "Hg

Humidity: 75%

Dew point: 27 °F

Location of SandefjordLocation

Historic Weather in Sandefjord — Graph

°F

Sandefjord temperature yesterday

Maximum temperature yesterday: 43 °F (at 4:20 PM)
Minimum temperature yesterday: 34 °F (at 10:20 PM)
Average temperature yesterday: 37 °F

Past Weeks' High & Low Weather Summary

 TemperatureHumidityPressure
High50 °F (Mar 24, 2:50 PM)100% (Mar 17, 3:20 AM)30.80 "Hg (Mar 17, 3:20 AM)
Low27 °F (Mar 28, 5:50 AM)33% (Mar 21, 3:20 PM)28.91 "Hg (Mar 30, 4:50 AM)
Average37 °F84%29.96 "Hg
* Reported Mar 16 12:20 AM — Mar 31 1:50 AM, Sandefjord, Weather by CustomWeather, © 2015

Note: Actual official high and low records may vary slightly from our data, if they occured in-between our weather recording intervals... More about our weather records

Advertising

Sandefjord weather history for previous 24 hours

 ConditionsComfort  
Time TempWeatherWind HumidityBarometerVisibility
1:50 AM
Tue, Mar 31
34 °FChilly.8 mph75%29.09 "HgN/A
1:20 AM34 °FChilly.6 mph75%29.09 "HgN/A
12:50 AM34 °FPassing clouds.6 mph81%29.12 "HgN/A
12:20 AM34 °FPassing clouds.5 mph81%29.12 "HgN/A
11:50 PM
Mon, Mar 30
34 °FClear.5 mph81%29.12 "Hg10 mi
11:20 PM34 °FClear.5 mph93%29.12 "Hg10 mi
10:50 PM34 °FClear.3 mph93%29.12 "Hg10 mi
10:20 PM34 °FClear.5 mph93%29.12 "Hg10 mi
9:50 PM36 °FClear.6 mph93%29.15 "Hg10 mi
9:20 PM37 °FClear.6 mph93%29.15 "Hg10 mi
8:50 PM37 °FPassing clouds.7 mph93%29.15 "HgN/A
8:20 PM39 °FPassing clouds.5 mph87%29.15 "HgN/A
7:50 PM39 °FPassing clouds.6 mph87%29.15 "HgN/A
7:20 PM41 °FPassing clouds.2 mph76%29.15 "HgN/A
6:50 PM43 °FPassing clouds.5 mph76%29.15 "HgN/A
6:20 PM43 °FPassing clouds.3 mph71%29.12 "HgN/A
5:50 PM43 °FPassing clouds.3 mph76%29.12 "HgN/A
5:20 PM43 °FPassing clouds.6 mph71%29.12 "HgN/A
4:50 PM43 °FScattered clouds.10 mph71%29.12 "HgN/A
4:20 PM43 °FScattered clouds.14 mph71%29.12 "HgN/A
3:50 PM41 °FScattered clouds.8 mph81%29.09 "HgN/A
3:20 PM39 °FBroken clouds.10 mph87%29.09 "HgN/A
2:50 PM39 °FMostly cloudy.8 mph87%29.09 "HgN/A
2:20 PM39 °FPartly sunny.7 mph87%29.09 "HgN/A
1:50 PM39 °FBroken clouds.8 mph87%29.06 "HgN/A
1:20 PM37 °FPartly sunny.9 mph93%29.06 "HgN/A
12:50 PM37 °FPartly sunny.9 mph87%29.06 "HgN/A
12:20 PM36 °FLow clouds.9 mph93%29.03 "HgN/A
11:50 AM36 °FDrizzle. Partly sunny.9 mph93%29.03 "Hg4 mi
11:20 AM36 °FLight rain. Low clouds.8 mph93%29.03 "HgN/A
10:50 AM36 °FLight rain. Low clouds.8 mph93%29.00 "HgN/A
10:20 AM36 °FDrizzle. Low clouds.7 mph93%29.00 "HgN/A
9:50 AM36 °FLight rain. Low clouds.8 mph93%29.00 "HgN/A
9:20 AM36 °FLight rain. Low clouds.8 mph93%28.97 "HgN/A
8:50 AM36 °FLight rain. Partly sunny.8 mph100%28.97 "HgN/A
8:20 AM36 °FLight rain. Low clouds.6 mph100%28.97 "HgN/A
7:50 AM36 °FLight rain. Low clouds.6 mph100%28.97 "HgN/A
7:20 AM36 °FDrizzle. Low clouds.6 mph100%28.94 "Hg6 mi
6:50 AM36 °FLight rain. Low clouds.6 mph100%28.94 "Hg6 mi
6:20 AM36 °FRain. Low clouds.6 mph100%28.94 "Hg5 mi
5:50 AM36 °FPassing clouds.3 mph100%28.91 "Hg4 mi
5:20 AM36 °FDrizzle. Overcast.3 mph100%28.91 "Hg1 mi
4:50 AM36 °FDrizzle. Low clouds.5 mph100%28.91 "Hg0 mi
4:20 AM36 °FDrizzle. Low clouds.6 mph100%28.94 "Hg0 mi
3:50 AM36 °FDrizzle. Mostly cloudy.5 mph100%28.94 "Hg0 mi
3:20 AM36 °FFog.2 mph100%28.94 "Hg0 mi
2:50 AM36 °FFog.1 mph100%28.94 "Hg0 mi
2:20 AM36 °FFog.3 mph100%28.94 "Hg0 mi
Weather by CustomWeather, © 2015

See weather overviewHow to use our weather pages